Regional Weather Roundup
Issued by NWS Northern Indiana

Home | Current Version | Previous Version | Text Only | Print | Product List | Glossary On
Versions: 1 2 3 4 5 6 7 8 9 10 11 12 13 14 15 16 17 18 19 20 21 22 23 24 25 26 27 28 29 30 31 32 33 34 35 36 37 38 39 40 41 42 43 44 45 46 47 48 49 50
000
ASUS43 KIWX 010110
RWRIWX

KIWX WEATHER ROUNDUP
NATIONAL WEATHER SERVICE NORTHERN INDIANA
900 PM EDT SUN APR 30 2017

NOTE: "FAIR" INDICATES FEW OR NO CLOUDS BELOW 12,000 FEET WITH NO
SIGNIFICANT WEATHER AND/OR OBSTRUCTIONS TO VISIBILITY.

* THESE STATIONS ARE NOT UNDER NWS QUALITY CONTROL. THEY ALSO MAY NOT
  REPORT WEATHER SUCH AS PRECIPITATION OR FOG.

INZ001>027-010200-
NORTHERN INDIANA

CITY           SKY/WX    TMP DP  RH WIND       PRES   REMARKS
GARY*          LGT RAIN  46  46 100 NE5       29.69F
VALPARAISO     CLOUDY    53  52  96 NE7       29.67F FOG
MICHIGAN CITY* CLOUDY    50  50 100 CALM      29.69F
LAPORTE*       RAIN      54  53  99 E5        29.69F
KNOX*          CLOUDY    63  57  82 E6        29.67F
SOUTH BEND     LGT RAIN  63  63 100 E7        29.69F
GOSHEN         LGT RAIN  64  61  90 E7        29.70F
MONTICELLO*    MOCLDY    64  62  94 CALM      29.65F
LOGANSPORT*    CLOUDY    63  61  94 E7        29.67F
ROCHESTER*     CLOUDY    64  64 100 E7        29.68F
WARSAW*        LGT RAIN  63  63 100 SE3       29.72F
ANGOLA*        MOCLDY    63  55  77 CALM      29.75F
FORT WAYNE     LGT RAIN  63  62  97 E12       29.73F FOG
HUNTINGTON*    PTCLDY   N/A N/A N/A SE7       29.71F
PERU/GRISSOM   CLOUDY    64  64 100 SE9       29.66F
MARION*        CLOUDY    63  63 100 SE10      29.70F

$$
INZ028>050-010200-
CENTRAL INDIANA

CITY           SKY/WX    TMP DP  RH WIND       PRES   REMARKS
LAFAYETTE      CLOUDY    63  63 100 E7        29.63F
KOKOMO*        CLOUDY    64  63  96 SE15      29.68F
MUNCIE*        CLOUDY    66  63  90 E3        29.72F
INDIANAPOLIS   CLOUDY    65  64  97 SE10      29.67F

$$
MIZ043>046-050>051-056>058-064>065-071>073-077>080-010200-
SOUTHWEST LOWER MICHIGAN

CITY           SKY/WX    TMP DP  RH WIND       PRES   REMARKS
BATTLE CREEK   LGT RAIN  49  49 100 NE10      29.77F FOG
BENTON HARBOR  RAIN      53  51  93 E6        29.69F FOG
COLDWATER*     HVY RAIN  62  62 100 E5        29.75F
HILLSDALE*     LGT RAIN  57  55  94 E7        29.76F
HOLLAND        LGT RAIN  44  42  93 E13       29.76F
GRAND RAPIDS   LGT RAIN  43  43 100 E15       29.79F FOG
KALAMAZOO      LGT RAIN  53  50  89 NE5       29.76F FOG
STURGIS*       RAIN      63  63  98 SE8       29.72F
THREE RIVERS*  RAIN      64  64  99 E3        29.73F

$$
OHZ001>008-015>018-024>025-010200-
NORTHWEST OHIO

CITY           SKY/WX    TMP DP  RH WIND       PRES   REMARKS
WAUSEON*       CLOUDY    59  59 100 NE5       29.77F FOG
DEFIANCE       CLOUDY    62  61  96 E5        29.75F
FINDLAY        CLOUDY    65  61  87 E8        29.76F
TOLEDO EXPRESS CLOUDY    54  54 100 E7        29.78F FOG
TOLEDO METCALF CLOUDY    56  56 100 E5        29.81F
LIMA           CLOUDY    65  64  97 SE8       29.76F

$$
AND FOR LAKE MICHIGAN COASTAL AND OPEN LAKE BUOY OBSERVATIONS

STATION/POSITION TEMP    WIND        PRES    VSBY  WAVE
                 AIR SEA DIR/SP/G                  HT/PER
                 (F)     (DEG/KT/KT) (MB)    (MI)  (FT/S)
CALUMET HARBOR    44      20/  9/ 11 1005.0F
MICHIGAN CITY     49      50/  8/  8   N/A
BURNS HARBOR      49      60/  9/ 10 1005.4F
SOUTH LAKE BUOY   42 41   50/ 12/ 14 1008.1          3/ 6
4 MI NW BRIDGMAN  52 46   40/  4/  8 1005.7          2/ 6
MICHIGAN CITY     49 48                N/A           3/ 5

$$
&&




USA.gov is the U.S. government's official web portal to all federal, state and local government web resources and services.